Location: Cosy Dell
(34.2789°N, 117.4537°W)
Time: 20:46:55
(UTC+00:00)

Gbstr 26 Del rocket - Pass Details

Date: 14 July 2020
Orbit: 492 x 1264 km, 51.8° (Epoch: 13 August)

Event Time Altitude Azimuth Distance (km) Brightness Sun altitude
Rises 04:48:17 0° 247° (WSW) 2,699 6.6 -18.5°
Reaches altitude 10° 04:50:43 10° 257° (WSW) 1,745 5.8 -18.9°
Maximum altitude 04:54:14 33° 323° (NW) 848 4.4 -19.4°
Drops below altitude 10° 04:57:39 10° 29° (NNE) 1,687 5.5 -19.9°
Sets 04:59:58 0° 40° (NE) 2,593 6.3 -20.2°
